User: anonymous   Login
Location: Caltech
(34.1382°N, 118.1253°W)
Time: 13:33:13
(UTC-08:00)
Language:

ASTRO E2 - Orbit

View from above orbital plane
View from above orbital plane
View from above satellite
View from above satellite

Ground track
Ground track

The orbit data is extracted from the following two-line orbital elements,

1 28773U 05025A   15064.65232987  .00006222  00000-0  35108-3 0  9999
2 28773 031.3836 295.9527 0005483 273.7279 086.2739 15.11756747530747
Epoch (UTC): 05 March 2015 15:39:21
Eccentricity: 0.0005483
inclination: 31.3836°
perigee height: 527 km
apogee height: 534 km
right ascension of ascending node: 295.9527°
argument of perigee: 273.7279°
revolutions per day: 15.11756747
mean anomaly at epoch: 86.2739°
orbit number at epoch: 53074

The dashed part of the orbit path shows where the satellite is in the earth's shadow,  

DLR